Home > Weather > Noumea > Past weeks

Flag for New Caledonia Weather for the Past 2 Weeks in Noumea, New Caledonia, New Caledonia

Now
73 °F

Sunny.


Feels Like: 70 °F
Forecast: 72 / 85 °F
Wind: 2 mph from North

Location: La Tontouta Nlle-Caledonie

Current Time: Feb 10, 2016 at 7:37:55 AM

Latest Report: Feb 10, 2016 at 7:00 AM


Visibility: 10 mi

Pressure: 29.68 "Hg

Humidity: 94%

Dew point: 72 °F

Location of NoumeaLocation

Historic Weather in Noumea — Graph

°F

Noumea Temperature Yesterday

Maximum temperature yesterday: 82 °F (at 12:00 PM)
Minimum temperature yesterday: 77 °F (at 5:30 AM)
Average temperature yesterday: 79 °F

High & Low Weather Summary for the Past Weeks

 TemperatureHumidityPressure
High97 °F (Feb 1, 2:00 PM)94% (Jan 26, 6:00 AM)29.98 "Hg (Jan 26, 6:00 AM)
Low70 °F (Jan 29, 5:30 AM)41% (Jan 30, 1:00 PM)29.62 "Hg (Feb 10, 3:00 AM)
Average82 °F73%29.80 "Hg
* Reported Jan 26 6:00 AM — Feb 10 6:30 AM, Noumea, Weather by CustomWeather, © 2016

Note: Actual official high and low records may vary slightly from our data, if they occured in-between our weather recording intervals... More about our weather records

Advertising

Noumea Weather History for the Previous 24 Hours

 ConditionsComfort  
Time TempWeatherWind HumidityBarometerVisibility
6:30 AM
Wed, Feb 10
73 °FSunny.No wind94%29.68 "Hg10 mi
6:00 AM72 °FSunny.No wind94%29.65 "Hg10 mi
5:30 AM72 °FSunny.3 mph88%29.65 "Hg10 mi
5:00 AM72 °FSunny.1 mph94%29.65 "Hg10 mi
4:30 AM73 °FClear.No wind89%29.62 "Hg10 mi
4:00 AM73 °FPassing clouds.No wind89%29.62 "HgN/A
3:00 AM73 °FPassing clouds.No wind89%29.62 "HgN/A
2:00 AM73 °FMostly cloudy.3 mph89%29.65 "HgN/A
1:30 AM73 °FPassing clouds.2 mph89%29.65 "HgN/A
1:00 AM75 °FClear.2 mph89%29.65 "Hg10 mi
12:30 AM75 °FClear.No wind89%29.68 "Hg10 mi
12:00 AM75 °FClear.1 mph89%29.68 "Hg10 mi
11:30 PM
Tue, Feb 9
77 °FPassing clouds.No wind83%29.71 "HgN/A
11:00 PM77 °FPassing clouds.2 mph89%29.71 "HgN/A
10:30 PM77 °FPassing clouds.2 mph89%29.74 "HgN/A
9:30 PM79 °FOvercast.3 mph84%29.74 "HgN/A
8:30 PM79 °FOvercast.2 mph84%29.71 "HgN/A
8:00 PM79 °FMostly cloudy.2 mph84%29.71 "HgN/A
7:00 PM79 °FOvercast.3 mph79%29.71 "HgN/A
6:30 PM81 °FOvercast.6 mph74%29.68 "HgN/A
6:00 PM81 °FOvercast.7 mph79%29.68 "HgN/A
5:30 PM81 °FMostly cloudy.7 mph79%29.68 "HgN/A
5:00 PM81 °FOvercast.7 mph79%29.68 "HgN/A
4:30 PM82 °FMore clouds than sun.8 mph74%29.68 "HgN/A
4:00 PM82 °FMore clouds than sun.10 mph74%29.68 "HgN/A
3:30 PM82 °FMore clouds than sun.7 mph74%29.65 "HgN/A
3:00 PM81 °FMostly cloudy.5 mph84%29.65 "HgN/A
2:30 PM81 °FMostly cloudy.7 mph84%29.68 "HgN/A
2:00 PM82 °FMostly cloudy.3 mph74%29.68 "HgN/A
1:30 PM82 °FMostly cloudy.6 mph74%29.68 "HgN/A
1:00 PM82 °FLight rain. Mostly cloudy.10 mph79%29.71 "HgN/A
12:00 PM82 °FMostly cloudy.3 mph79%29.71 "HgN/A
11:30 AM81 °FPartly sunny.3 mph89%29.71 "HgN/A
11:00 AM79 °FLight rain. Fog.2 mph94%29.74 "Hg2 mi
10:30 AM79 °FMostly cloudy.2 mph94%29.74 "HgN/A
10:00 AM79 °FBroken clouds.3 mph94%29.74 "HgN/A
9:00 AM77 °FDrizzle. Fog.3 mph94%29.74 "Hg3 mi
8:30 AM77 °FLight rain. Fog.3 mph94%29.74 "Hg2 mi
8:00 AM77 °FLight rain. Cloudy.1 mph94%29.74 "Hg4 mi
7:30 AM77 °FMore clouds than sun.5 mph94%29.71 "Hg5 mi
7:00 AM77 °FCloudy.3 mph94%29.71 "HgN/A
Weather by CustomWeather, © 2016

See weather overviewHow to use our weather pages